SCP
0 0 0 0 0 0 0 0 0 0 0 0 0 0 0 0 0 0 0 0 0 0 0 0 0 0 1 1 0 0 0 0 0 0 0 0 0 0 0 0 0 0 0
0 0 0 0 0 0 0 0 0 0 0 0 0 0 0 0 0 0 0 0 0 0 1 0 0 0 1 1 0 0 0 0 0 0 0 0 0 0 0 0 0 0 0
0 0 0 0 0 0 0 0 0 0 0 0 0 0 0 0 0 0 0 0 0 0 1 1 1 1 1 1 0 0 1 1 0 0 0 0 0 0 0 0 0 0 0
0 0 0 0 0 0 0 0 0 0 0 0 0 0 0 0 0 0 0 0 0 0 0 1 1 1 1 1 0 0 0 0 1 1 0 0 0 0 0 0 0 0 0
0 0 0 0 0 0 0 0 0 0 0 0 0 0 0 0 0 0 0 0 0 0 0 0 1 1 1 1 0 0 0 0 0 0 0 0 0 0 0 0 0 0 0
0 0 0 0 0 0 0 0 0 0 0 0 0 0 0 0 0 0 0 0 0 0 0 0 1 1 1 1 1 0 0 0 0 0 0 0 0 0 0 0 0 0 0
0 0 0 0 0 0 0 0 0 0 0 0 0 0 0 0 0 0 0 0 0 0 0 0 0 1 1 1 0 0 0 0 0 0 0 0 0 0 0 0 0 0 0
0 0 0 0 0 0 0 0 0 0 0 0 0 0 0 0 0 0 0 0 0 0 0 0 0 0 0 0 0 0 0 0 0 0 0 0 0 0 0 0 0 0 0
0 0 0 0 0 0 0 0 0 0 0 0 0 0 0 0 0 0 0 0 0 0 0 0 0 0 0 0 0 0 0 0 0 0 0 0 0 0 0 0 0 0 0
0 0 0 0 0 0 0 0 0 0 0 0 0 0 0 0 0 0 0 0 0 0 0 0 0 0 0 0 0 0 0 0 0 0 0 0 0 0 0 0 0 0 0
0 0 0 0 0 0 0 0 0 0 0 0 0 0 0 0 0 0 0 0 0 0 0 0 0 0 0 0 0 0 0 0 0 0 0 0 0 0 0 0 0 0 0
0 0 0 0 0 0 0 0 0 0 0 0 0 0 0 0 0 0 0 0 0 0 0 0 0 0 0 0 0 0 0 0 0 0 0 0 0 0 0 0 0 0 0
0 0 0 0 0 0 0 0 0 0 0 0 0 0 0 0 0 0 0 0 0 0 0 0 0 0 0 0 0 0 0 0 0 0 0 0 0 0 0 0 0 0 0
0 0 0 0 0 0 0 0 0 0 0 0 0 0 0 0 0 0 0 0 0 0 0 0 0 0 0 0 0 0 0 0 0 0 0 0 0 0 0 0 0 0 0
0 0 0 0 0 0 0 0 0 0 0 0 0 0 0 0 0 0 0 0 0 0 0 0 0 0 0 0 0 0 0 0 0 0 0 0 0 0 0 0 0 0 0
0 0 0 0 0 0 0 0 0 0 0 0 0 0 -0 0 0 0 0 0 0 0 0 0 0 0 0 0 0 0 0 0 0 0 0 0 0 0 0 0 0 0 0
0 0 0 0 0 0 0 0 0 0 0 0 0 0 0 0 0 0 0 0 0 0 0 0 0 0 0 0 0 0 0 0 0 0 0 0 0 0 0 0 0 0 0
0 0 0 0 0 0 0 0 0 0 0 0 0 0 0 0 0 0 0 0 0 0 0 0 0 0 0 0 0 0 0 0 0 0 0 0 0 0 0 0 0 0 0
0 0 0 0 0 0 0 0 0 0 0 0 0 0 0 0 0 0 0 0 0 0 0 0 0 0 0 0 0 0 0 0 0 0 0 0 0 0 0 0 0 0 0
0 0 0 0 0 0 0 0 0 0 0 0 0 0 0 0 0 0 0 0 0 0 0 0 0 0 0 0 0 0 0 0 0 0 0 0 0 0 0 0 0 0 0
0 0 0 0 0 0 0 0 0 0 0 0 0 0 0 0 0 0 0 0 0 0 0 0 0 0 0 0 0 0 0 0 0 0 0 0 0 0 0 0 0 0 0
0 0 0 0 0 0 0 0 0 0 0 0 0 0 0 0 0 0 0 0 0 0 0 0 0 0 0 0 0 0 0 0 0 0 0 0 0 0 0 0 0 0 0
0 0 0 0 0 0 0 0 0 0 0 0 0 0 0 0 0 0 0 0 0 0 0 0 0 0 0 0 0 0 0 0 0 0 0 0 0 0 0 0 0 0 0
0 0 0 0 0 0 0 0 0 0 0 0 0 0 0 0 0 0 0 0 0 0 0 0 0 0 0 0 0 0 0 0 0 0 0 0 0 0 0 0 0 0 0
0 0 0 0 0 0 0 0 0 0 0 0 0 0 0 0 0 0 0 0 0 0 0 0 0 0 0 0 0 0 0 0 0 0 0 0 0 0 0 0 0 0 0
0 0 0 0 0 0 0 0 0 0 0 0 0 0 0 0 0 0 0 0 0 0 0 0 0 0 0 0 0 0 0 0 0 0 0 0 0 0 0 0 0 0 0
Wind_Speed
1 1 1 1 2 2 2 3 4 4 5 6 7 8 8 8 8 7 6 15 16 16 18 20 21 22 21 21 20 20 20 19 18 16 16 16 15 16 15 14 14 13 12
1 1 1 2 2 2 2 3 4 4 4 4 6 7 8 8 8 9 8 10 17 17 18 19 21 22 23 22 22 21 21 21 19 18 17 16 16 16 16 15 15 14 13
2 1 2 2 2 2 3 2 3 3 4 4 6 7 7 8 8 9 9 8 9 15 18 18 19 21 23 24 24 23 21 21 20 19 19 18 17 16 16 16 15 14 13
2 2 2 2 3 2 2 2 2 3 3 4 4 5 5 6 9 10 9 9 8 9 13 19 19 20 22 24 24 24 22 21 21 20 20 19 18 18 17 16 16 15 14
3 1 1 2 3 2 2 3 2 2 3 4 5 5 5 6 8 10 10 11 11 10 8 12 17 18 21 24 24 24 23 23 22 22 22 21 21 19 18 18 17 16 15
3 2 2 3 2 2 2 2 3 3 3 4 5 6 6 7 7 8 10 9 9 11 10 10 9 11 18 20 21 22 23 23 23 23 23 23 22 21 20 19 18 18 17
4 3 2 3 2 2 2 3 2 3 2 2 3 4 5 6 7 7 7 7 9 10 10 10 8 7 7 16 19 21 23 24 24 24 23 23 23 22 21 21 20 19 19
4 3 3 3 2 2 3 2 1 2 2 2 2 3 4 4 3 5 5 6 8 7 10 12 10 9 8 7 10 19 22 24 25 24 24 23 23 22 21 21 21 20 20
4 4 4 3 2 1 2 2 2 1 2 2 2 2 2 3 4 3 4 5 5 5 7 7 10 10 11 9 8 14 21 22 24 25 24 23 23 22 22 22 22 21 21
4 4 4 3 3 2 2 2 1 1 1 2 2 2 3 3 3 4 3 2 4 5 6 7 9 10 10 8 10 14 18 20 22 24 24 23 23 22 22 23 23 23 22
4 4 4 3 3 2 2 2 2 1 1 2 1 2 2 2 3 3 4 4 3 3 5 7 7 7 9 9 9 14 19 20 21 23 23 23 23 23 23 24 24 24 23
3 4 4 3 3 2 3 3 2 2 2 2 2 2 2 2 2 2 4 4 5 4 4 5 6 7 7 8 13 16 18 19 20 21 21 22 22 23 24 24 25 24 24
3 5 4 3 3 3 4 3 2 3 3 3 3 2 3 3 2 2 3 4 4 4 4 3 5 5 7 7 8 15 17 19 19 19 19 20 21 21 23 23 24 23 23
5 5 5 5 5 5 4 3 3 3 3 3 4 4 3 4 3 3 2 3 4 3 3 4 2 3 4 5 7 12 11 17 18 18 18 18 19 19 20 21 21 20 20
5 6 5 5 5 5 5 4 3 4 4 4 4 4 4 4 4 4 3 3 3 4 4 3 2 2 2 3 5 6 8 12 16 17 17 17 18 18 18 19 18 18 17
5 6 7 6 6 6 5 5 5 5 5 5 4 5 4 4 4 4 4 4 4 4 4 3 2 4 4 3 4 5 6 8 12 14 15 16 16 16 17 17 17 17 17
6 6 7 7 7 7 6 5 6 6 6 6 6 6 6 5 4 4 4 4 4 4 6 5 3 3 4 3 1 1 2 3 4 10 13 13 14 15 15 15 15 16 16
7 7 7 7 8 8 7 7 8 7 7 8 8 7 8 6 6 5 4 5 5 5 5 6 4 3 4 3 1 1 2 2 2 6 9 10 11 13 13 13 14 14 14
7 7 7 8 8 8 8 8 8 9 8 9 8 8 8 8 7 6 6 6 5 5 5 5 5 3 3 2 0 2 3 3 3 4 6 7 8 10 11 12 12 12 13
7 8 8 8 9 9 9 9 9 9 9 9 9 9 9 9 9 8 7 7 6 6 6 5 5 3 3 3 2 2 3 2 3 3 4 5 6 8 9 10 11 12 12
8 8 8 9 9 8 9 9 9 10 9 10 9 9 10 12 13 10 7 7 7 6 5 5 5 3 3 3 3 2 3 4 3 2 4 3 4 4 4 6 8 10 11
8 8 9 9 10 8 11 14 12 10 10 11 11 10 10 12 14 15 16 14 12 9 8 6 5 5 5 4 3 3 4 5 4 3 3 3 3 4 3 2 6 10 11
8 9 9 9 10 11 14 16 16 11 11 11 11 10 9 10 11 10 12 15 15 16 14 9 8 8 6 5 5 6 6 5 4 6 4 3 2 3 3 3 7 9 11
8 8 9 10 10 11 14 14 15 11 10 11 11 11 11 11 10 10 10 10 10 11 12 11 9 9 8 6 5 5 5 5 4 4 3 4 3 3 3 4 6 9 11
8 8 9 10 10 12 13 13 12 7 8 10 10 11 11 12 13 14 12 11 11 10 11 13 12 11 11 10 6 4 6 7 5 3 2 4 4 3 3 3 6 10 11
9 9 10 9 10 11 12 13 11 6 7 8 8 9 13 14 13 13 12 11 12 10 9 9 9 10 10 10 10 8 7 7 5 5 4 5 5 5 4 2 3 4 7
Wind_Direction
286 291 294 299 294 287 280 276 271 263 250 238 231 229 228 225 227 223 228 233 231 227 227 226 221 214 210 208 207 203 201 200 197 194 194 192 189 187 186 185 183 181 180
315 309 306 308 303 296 286 277 274 268 259 248 240 233 234 231 230 229 227 234 236 232 228 228 226 220 215 212 210 207 205 204 201 198 197 196 193 192 192 190 189 187 185
337 326 321 316 307 302 297 289 284 270 262 252 247 242 238 237 235 233 231 227 232 235 232 230 228 223 218 216 214 211 208 206 203 201 200 198 196 195 195 194 193 191 189
348 341 324 310 313 318 314 301 287 285 271 261 255 251 245 241 242 239 235 229 225 229 233 232 229 225 221 219 218 214 210 208 206 203 202 201 200 198 197 196 195 193 192
1 356 314 306 318 322 319 313 302 274 278 275 267 257 247 243 244 243 238 232 225 222 222 231 232 227 225 224 222 219 215 211 208 206 205 204 204 202 200 199 197 195 194
2 359 329 323 325 319 317 314 298 283 266 274 279 271 256 247 242 241 240 235 225 222 221 224 226 228 227 227 224 222 221 217 212 209 208 207 206 205 203 202 200 198 197
357 357 342 328 324 304 295 303 294 297 288 282 285 287 274 252 244 241 236 233 231 226 219 218 217 220 224 225 225 224 225 223 218 214 211 209 207 206 204 203 203 202 200
348 353 345 326 316 302 309 313 295 302 295 306 285 294 308 312 276 246 238 234 233 227 223 220 215 215 218 218 220 221 224 225 223 218 214 210 208 207 205 204 204 204 202
337 341 337 327 315 288 285 292 286 271 288 302 282 288 304 304 315 291 248 244 240 233 230 223 218 217 216 216 218 221 223 222 223 222 218 213 210 206 204 204 205 205 205
323 328 329 329 319 302 288 287 299 262 254 291 308 285 261 274 291 311 308 266 247 240 235 231 227 222 219 217 218 217 221 221 222 224 222 217 212 207 205 205 206 207 207
313 317 319 328 329 312 297 290 297 274 239 241 264 294 296 284 259 278 297 316 308 260 243 233 227 223 219 219 221 221 218 220 221 221 221 217 213 209 207 207 209 210 210
300 305 308 311 310 305 301 294 283 273 248 244 247 251 262 280 294 284 288 303 300 288 268 241 229 224 220 218 224 223 218 218 218 216 217 216 213 210 208 209 211 212 212
288 292 300 290 288 287 287 281 281 284 264 249 247 246 247 250 256 260 278 292 294 291 280 254 229 222 221 214 222 224 224 218 214 213 213 212 209 207 206 208 210 211 211
268 277 281 277 276 279 283 279 275 276 271 265 264 253 250 254 249 246 254 288 301 293 276 278 266 233 230 220 223 223 229 219 211 209 208 206 204 203 202 203 204 206 208
270 273 275 277 277 275 274 273 266 272 273 267 266 262 253 253 249 248 243 242 268 294 295 290 302 333 290 247 228 221 228 219 209 207 205 203 202 200 199 197 198 200 202
271 279 280 278 276 273 267 259 260 263 262 262 257 260 258 257 254 249 244 241 238 254 275 294 308 319 312 286 239 221 223 219 212 205 202 200 198 197 194 194 195 197 199
276 276 278 279 278 275 269 257 255 257 254 258 260 257 260 258 255 251 242 238 238 238 261 279 280 303 302 293 273 204 184 192 202 202 198 196 193 191 190 190 192 193 195
276 276 278 278 277 276 270 264 266 265 253 254 256 254 259 260 252 250 242 238 237 233 245 271 284 293 296 297 249 136 110 108 126 173 181 183 184 183 182 183 186 189 192
279 280 277 276 277 277 275 269 265 265 259 254 252 249 252 252 253 250 244 242 241 241 235 252 270 276 285 278 185 112 104 94 92 113 132 153 167 171 175 179 183 186 188
278 279 277 275 275 276 275 273 269 267 265 260 253 248 247 243 244 246 244 242 241 242 239 243 255 263 267 266 208 163 137 123 111 98 100 106 131 146 161 170 177 181 184
278 276 279 279 276 273 269 266 265 267 266 266 260 251 246 243 242 239 235 233 232 234 234 234 241 247 248 237 215 175 159 143 116 124 119 100 110 112 129 154 163 169 173
279 278 276 276 276 272 269 269 270 270 268 268 268 263 255 255 254 251 247 239 225 224 227 228 228 229 237 237 225 191 162 162 156 151 128 97 85 92 78 106 144 154 159
279 280 278 274 273 271 269 271 272 270 265 265 264 263 262 257 248 242 246 248 242 232 224 222 227 224 225 225 219 204 189 171 154 154 132 108 82 82 52 68 119 136 142
278 279 279 277 275 274 271 270 273 272 266 263 260 257 255 256 251 241 242 244 243 240 232 229 229 227 225 218 219 224 189 143 112 125 123 120 108 86 60 55 82 115 127
282 280 278 277 276 278 275 272 271 268 264 264 261 257 252 253 247 237 239 244 245 245 240 232 226 226 222 215 205 200 179 167 155 145 120 121 124 101 70 47 57 87 106
280 284 282 276 272 275 276 274 273 261 263 265 265 259 253 250 246 235 236 238 241 240 237 229 222 223 221 218 208 208 196 184 162 155 160 132 136 136 114 64 47 71 87